Notices

What's New in latest Release from April 7th, 2021:

- Updated Glossary, including Speed of Maximum Gust, and Total Hourly Precipitation

- Updated national and regional climate services offices contacts and prices information

- Addition of station inventory lists for 1981-2010, 1971-2000, and 1961-1990 Normals.

If you haven't already, please take our survey and provide feedback about our website: https://eccc.sondage-survey.ca/f/LanguageSelection.aspx?s=442ca660-fcf1-47c0-95a9-59707d6fd709

Hourly Data Report for March 31, 2003

TORONTO CITY
ONTARIO

43°40'00.000" N
79°24'00.000" W
112.50 m
6158355
71508
XTO

Download Data

Hourly Data (March 2003)
Hourly Data Report for March 31, 2003
TIME
LST
Temp Definition
°C
Dew Point Definition
°C
Rel Hum Definition
%
Precip. Amount Definition
mm

Wind Dir Definition
10's deg

Wind Spd Definition
km/h
Visibility Definition
km
Stn Press Definition
kPa
Hmdx Definition


Wind Chill Definition


Weather Definition


00:00 -2.7 -8.5 64   LegendMM LegendMM LegendMM 100.42     LegendNANA
01:00 -3.0 -8.3 67   LegendMM LegendMM LegendMM 100.40     LegendNANA
02:00 -3.3 -8.3 68   LegendMM LegendMM LegendMM 100.36     LegendNANA
03:00 -3.6 -8.4 69   LegendMM LegendMM LegendMM 100.32     LegendNANA
04:00 -3.8 -8.6 69   LegendMM LegendMM LegendMM 100.27     LegendNANA
05:00 -4.2 -8.2 74   LegendMM LegendMM LegendMM 100.25     LegendNANA
06:00 -4.3 -8.5 72   LegendMM LegendMM LegendMM 100.25     LegendNANA
07:00 -3.4 -7.8 72   LegendMM LegendMM LegendMM 100.26     LegendNANA
08:00 -1.8 -7.8 64   LegendMM LegendMM LegendMM 100.25     LegendNANA
09:00 -1.5 -9.5 54   LegendMM LegendMM LegendMM 100.21     LegendNANA
10:00 -1.0 -7.7 60   LegendMM LegendMM LegendMM 100.18     LegendNANA
11:00 -1.6 -5.2 76   LegendMM LegendMM LegendMM 100.14     LegendNANA
12:00 -1.0 -2.4 90   LegendMM LegendMM LegendMM 100.07     LegendNANA
13:00 1.7 -4.9 62   LegendMM LegendMM LegendMM 99.98     LegendNANA
14:00 -0.7 -3.2 83   LegendMM LegendMM LegendMM 100.02     LegendNANA
15:00 -0.3 -6.8 61   LegendMM LegendMM LegendMM 100.09     LegendNANA
16:00 -1.1 -10.8 48   LegendMM LegendMM LegendMM 100.16     LegendNANA
17:00 -1.4 -11.3 47   LegendMM LegendMM LegendMM 100.18     LegendNANA
18:00 -1.6 -11.3 48   LegendMM LegendMM LegendMM 100.23     LegendNANA
19:00 -1.7 -11.6 47   LegendMM LegendMM LegendMM 100.29     LegendNANA
20:00 -2.6 -10.3 55   LegendMM LegendMM LegendMM 100.39     LegendNANA
21:00 -3.1 -11.2 54   LegendMM LegendMM LegendMM 100.41     LegendNANA
22:00 -3.7 -11.7 54   LegendMM LegendMM LegendMM 100.44     LegendNANA
23:00 -3.8 -11.4 56   LegendMM LegendMM LegendMM 100.42     LegendNANA

Notes on Data Quality.

Legend

  • E = Estimated
  • M = Missing
  • NA = Not Available*
  • [empty] = Indicates an unobserved value
Date modified: